GW5072 Weather Reports


time (UTC)temp
C
wind
direction
speed
KPH
gust
KPH
rain 1hr
cm
rain 24hr
cm
rain mn
cm
humidity
%
barometer
mb
20260905012504 26 82 0.0 0.0 0.00 0.30 0.30 91 1013.1
20260905012004 26 82 0.0 0.0 0.00 0.30 0.30 90 1013.1
20260905011507 26 82 0.0 0.0 0.00 0.30 0.30 90 1013.0
20260905011006 26 82 0.0 0.0 0.00 0.30 0.30 90 1013.0
20260905010506 26 82 0.0 0.0 0.00 0.30 0.30 89 1013.0
20260905010009 26 83 0.0 0.0 0.00 0.30 0.30 89 1012.9
20260905005505 26 82 0.0 0.0 0.00 0.30 0.30 89 1012.9
20260905005003 27 82 0.0 0.0 0.00 0.30 0.30 89 1013.0
20260905004510 27 82 0.0 0.0 0.00 0.30 0.30 89 1012.9
20260905004003 27 82 0.0 0.0 0.00 0.30 0.30 88 1012.8
20260905003506 27 82 0.0 0.0 0.00 0.30 0.30 88 1012.7
20260905003012 27 82 0.0 0.0 0.00 0.30 0.30 88 1012.7
20260905002504 27 83 0.0 0.0 0.00 0.30 0.30 88 1012.7
20260905002008 27 82 0.0 0.0 0.00 0.30 0.30 87 1012.5
20260905001512 27 82 0.0 0.0 0.00 0.30 0.30 88 1012.5
20260905001004 27 82 0.0 0.0 0.00 0.30 0.30 87 1012.6
20260905000509 27 82 0.0 0.0 0.00 0.30 0.30 88 1012.5
20260905000014 27 82 0.0 0.0 0.00 0.30 0.30 88 1012.6
20260904235505 27 82 0.0 0.0 0.00 0.30 0.30 89 1012.7
20260904235003 27 82 0.0 0.0 0.00 0.30 0.30 88 1012.6
20260904234513 27 83 0.0 0.0 0.00 0.30 0.30 88 1012.6
20260904234006 27 83 0.0 0.0 0.00 0.30 0.30 88 1012.6
20260904233503 27 218 0.0 0.0 0.00 0.30 0.30 88 1012.6
20260904233011 28 218 0.0 0.0 0.00 0.30 0.30 86 1012.6
20260904232509 28 218 0.0 0.0 0.00 0.30 0.30 87 1012.6
20260904232007 28 218 0.0 0.0 0.00 0.30 0.30 86 1012.7
20260904231515 28 218 0.0 0.0 0.00 0.30 0.30 85 1012.6
20260904231007 28 218 0.0 0.0 0.00 0.30 0.30 85 1012.5
20260904230507 28 218 0.0 0.0 0.00 0.30 0.30 84 1012.4
20260904230009 29 218 0.0 0.0 0.00 0.30 0.30 82 1012.7
20260904225506 29 218 0.0 0.0 0.00 0.30 0.30 81 1012.5
20260904225006 30 218 0.0 0.0 0.00 0.30 0.30 80 1012.5
20260904224505 30 218 0.0 0.0 0.00 0.30 0.30 79 1012.6
20260904224008 30 218 0.0 0.0 0.00 0.30 0.30 78 1012.7
20260904223503 30 218 0.0 0.0 0.00 0.30 0.30 78 1012.7
20260904223023 30 218 0.0 0.0 0.00 0.30 0.30 77 1012.7
20260904222507 30 218 0.0 0.0 0.00 0.30 0.30 78 1012.9
20260904222004 30 218 0.0 0.0 0.00 0.30 0.30 76 1012.9
20260904221518 31 218 0.0 0.0 0.00 0.30 0.30 75 1012.9
20260904221004 31 218 0.0 0.0 0.00 0.30 0.30 74 1012.9
20260904220504 31 218 0.0 1.6 0.00 0.30 0.30 76 1013.0
20260904220020 31 218 0.0 1.6 0.00 0.30 0.30 75 1013.0
20260904215505 31 233 0.0 0.0 0.00 0.30 0.30 77 1012.9
20260904215009 30 242 0.0 0.0 0.00 0.30 0.30 76 1013.0
20260904214518 30 241 0.0 0.0 0.00 0.30 0.30 77 1013.0
20260904214003 30 241 0.0 0.0 0.00 0.30 0.30 80 1013.0
20260904213508 30 238 0.0 0.0 0.00 0.30 0.30 79 1013.0
20260904213024 30 238 0.0 0.0 0.00 0.30 0.30 78 1013.1
20260904212510 30 238 0.0 0.0 0.00 0.30 0.30 79 1013.1
20260904212009 30 238 0.0 0.0 0.00 0.30 0.30 79 1013.1
20260904211509 30 245 0.0 0.0 0.00 0.30 0.30 81 1013.2
20260904211014 29 94 0.0 0.0 0.00 0.30 0.30 81 1013.4
20260904210508 29 60 0.0 0.0 0.00 0.30 0.30 87 1013.3
20260904210023 28 60 0.0 0.0 0.00 0.30 0.30 87 1013.4
20260904205508 28 60 0.0 0.0 0.00 0.30 0.30 90 1013.7
20260904205006 27 86 0.0 0.0 0.00 0.30 0.30 90 1013.9
20260904204521 27 86 0.0 0.0 0.00 0.30 0.30 89 1014.0
20260904204008 27 86 0.0 0.0 0.00 0.30 0.30 89 1014.0
20260904203506 26 86 0.0 0.0 0.00 0.30 0.30 89 1014.1
20260904203023 26 86 0.0 0.0 0.00 0.30 0.30 90 1014.2
20260904202509 26 86 0.0 0.0 0.00 0.30 0.30 90 1014.2
20260904202004 26 86 0.0 0.0 0.00 0.30 0.30 91 1014.3
20260904201520 26 86 0.0 0.0 0.00 0.30 0.30 92 1014.4
20260904201007 26 86 0.0 0.0 0.00 0.30 0.30 92 1014.4
20260904200515 26 86 0.0 0.0 0.00 0.30 0.30 93 1014.3
20260904200023 26 86 0.0 0.0 0.00 0.30 0.30 93 1014.4
20260904195504 26 86 0.0 0.0 0.00 0.30 0.30 92 1014.5
20260904195013 26 86 0.0 0.0 0.00 0.30 0.30 92 1014.3
20260904194517 26 87 0.0 0.0 0.00 0.30 0.30 94 1014.3
20260904194014 25 86 0.0 0.0 0.00 0.30 0.30 94 1014.4
20260904193511 25 86 0.0 0.0 0.00 0.30 0.30 93 1014.4
20260904193016 25 86 0.0 0.0 0.00 0.30 0.30 94 1014.3
20260904192512 25 87 0.0 0.0 0.00 0.30 0.30 94 1014.4
20260904192010 25 86 0.0 0.0 0.00 0.30 0.30 93 1014.5
20260904191511 25 86 0.0 0.0 0.00 0.30 0.30 94 1014.5
20260904191013 25 86 0.0 0.0 0.00 0.30 0.30 94 1014.6
20260904190508 25 86 0.0 0.0 0.00 0.30 0.30 93 1014.6
20260904190027 25 88 0.0 0.0 0.03 0.30 0.30 94 1014.8
20260904185510 25 94 0.0 0.0 0.03 0.30 0.30 94 1014.9
20260904185007 25 94 0.0 0.0 0.05 0.30 0.30 94 1015.0
20260904184526 25 94 0.0 0.0 0.05 0.30 0.30 94 1015.0
20260904184010 25 94 0.0 0.0 0.10 0.30 0.30 94 1015.1
20260904183506 25 208 0.0 0.0 0.18 0.30 0.30 93 1015.1
20260904183029 24 211 0.0 0.0 0.28 0.30 0.30 94 1015.2
20260904182510 24 212 0.0 0.0 0.28 0.30 0.30 93 1015.4
20260904182019 24 207 0.0 0.0 0.28 0.33 0.30 93 1015.6
20260904181525 24 207 0.0 0.0 0.28 0.41 0.30 92 1015.6
20260904181011 24 207 0.0 0.0 0.28 0.43 0.30 91 1015.6
20260904180513 25 207 0.0 0.0 0.28 0.43 0.30 90 1015.6
20260904180023 25 129 0.0 0.0 0.25 0.41 0.28 90 1015.8
20260904175504 25 129 0.0 0.0 0.25 0.41 0.28 88 1016.0
20260904175012 25 270 0.0 0.0 0.23 0.38 0.25 87 1016.1
20260904174519 26 103 0.0 0.0 0.23 0.38 0.25 85 1016.1
20260904174013 27 135 0.0 0.0 0.18 0.33 0.20 83 1016.3
20260904173513 27 136 0.0 0.0 0.10 0.25 0.13 80 1016.3
20260904173016 27 217 0.0 0.0 0.00 0.15 0.03 78 1016.0
20260904172514 27 260 0.0 1.6 0.00 0.15 0.03 76 1015.8
20260904172013 28 229 0.0 1.6 0.00 0.15 0.03 76 1015.7
20260904171529 28 315 0.0 1.6 0.00 0.15 0.03 76 1015.7
20260904171013 28 231 0.0 1.6 0.00 0.15 0.03 76 1015.8
20260904170509 28 220 0.0 1.6 0.00 0.15 0.03 75 1015.8
20260904170028 28 219 0.0 1.6 0.00 0.15 0.03 74 1016.0
20260904165516 29 278 0.0 1.6 0.00 0.15 0.03 74 1016.1
20260904165008 29 223 0.0 1.6 0.00 0.15 0.03 73 1016.2
20260904164527 30 227 0.0 3.2 0.00 0.15 0.03 74 1016.1
20260904164011 31 275 0.0 3.2 0.00 0.15 0.03 72 1015.9
20260904163514 31 321 0.0 1.6 0.00 0.15 0.03 70 1015.9
20260904163032 32 223 0.0 0.0 0.00 0.15 0.03 75 1015.7
20260904162513 31 111 0.0 0.0 0.00 0.15 0.03 76 1015.6
20260904162014 31 112 0.0 0.0 0.00 0.15 0.03 77 1015.4
20260904161533 31 278 0.0 1.6 0.00 0.15 0.03 78 1015.2
20260904161013 31 86 0.0 1.6 0.00 0.15 0.03 77 1015.3
20260904160514 31 66 0.0 0.0 0.00 0.15 0.03 78 1015.1
20260904160024 30 110 0.0 0.0 0.00 0.15 0.03 81 1015.1
20260904155516 30 75 0.0 0.0 0.00 0.15 0.03 81 1015.1
20260904155016 30 113 0.0 0.0 0.00 0.15 0.03 82 1015.1
20260904154521 30 54 0.0 0.0 0.00 0.15 0.03 83 1015.1
20260904154013 30 107 0.0 0.0 0.00 0.15 0.03 83 1015.1
20260904153513 30 83 0.0 1.6 0.00 0.15 0.03 83 1015.1
20260904153035 30 305 0.0 1.6 0.00 0.15 0.03 84 1015.0
20260904152513 29 90 0.0 1.6 0.00 0.15 0.03 86 1015.1
20260904152010 29 88 0.0 0.0 0.00 0.15 0.03 87 1015.0
20260904151533 28 106 0.0 0.0 0.00 0.15 0.03 87 1015.0
20260904151016 28 81 0.0 0.0 0.00 0.15 0.03 88 1015.0
20260904150512 28 92 0.0 0.0 0.00 0.15 0.03 89 1015.2
20260904150037 28 134 0.0 0.0 0.00 0.15 0.03 91 1015.0
20260904145515 28 134 0.0 0.0 0.00 0.15 0.03 90 1015.0
20260904145013 28 214 0.0 0.0 0.00 0.15 0.03 91 1015.1
20260904144530 28 153 0.0 1.6 0.00 0.15 0.03 92 1015.0
20260904144012 27 84 0.0 1.6 0.00 0.15 0.03 92 1015.1
20260904143517 27 77 0.0 0.0 0.00 0.15 0.03 94 1015.0
20260904143030 27 77 0.0 0.0 0.00 0.15 0.03 94 1015.0
20260904142510 27 77 0.0 0.0 0.00 0.15 0.03 94 1015.0
20260904142016 27 76 0.0 0.0 0.00 0.15 0.03 95 1015.0
20260904141534 27 213 0.0 0.0 0.00 0.15 0.03 96 1015.1
20260904141014 27 90 0.0 0.0 0.00 0.15 0.03 97 1015.0
20260904140513 26 91 0.0 0.0 0.00 0.15 0.03 97 1015.1
20260904140026 26 90 0.0 0.0 0.00 0.15 0.03 97 1015.0
20260904135506 26 84 0.0 0.0 0.00 0.15 0.03 97 1014.9
20260904135014 26 84 0.0 0.0 0.00 0.15 0.03 97 1014.7
20260904134527 26 83 0.0 0.0 0.00 0.15 0.03 97 1014.7
20260904134006 26 84 0.0 0.0 0.00 0.15 0.03 97 1014.7
20260904133518 26 84 0.0 0.0 0.00 0.15 0.03 97 1014.7
20260904133020 26 84 0.0 0.0 0.00 0.15 0.03 97 1014.7
20260904132514 26 84 0.0 0.0 0.00 0.15 0.03 97 1014.7
20260904132015 25 84 0.0 0.0 0.00 0.15 0.03 97 1014.7
20260904131515 25 84 0.0 0.0 0.00 0.15 0.03 98 1014.6
20260904131014 25 90 0.0 0.0 0.00 0.15 0.03 97 1014.6
20260904130514 25 90 0.0 0.0 0.00 0.15 0.03 97 1014.6
20260904130038 25 90 0.0 0.0 0.00 0.15 0.03 97 1014.5
20260904125517 25 90 0.0 0.0 0.00 0.15 0.03 97 1014.5
20260904125009 25 90 0.0 0.0 0.00 0.15 0.03 97 1014.4
20260904124531 25 90 0.0 0.0 0.00 0.15 0.03 97 1014.4
20260904124012 25 90 0.0 0.0 0.00 0.15 0.03 97 1014.3
20260904123508 25 90 0.0 0.0 0.00 0.15 0.03 97 1014.3
20260904123031 25 90 0.0 0.0 0.00 0.15 0.03 97 1014.2
20260904122511 25 90 0.0 0.0 0.00 0.15 0.03 97 1014.1
20260904122016 25 90 0.0 0.0 0.00 0.15 0.03 97 1014.1
20260904121527 25 90 0.0 0.0 0.00 0.15 0.03 97 1014.1
20260904121012 25 90 0.0 0.0 0.00 0.15 0.03 97 1014.0
20260904120517 25 90 0.0 0.0 0.00 0.15 0.03 97 1014.0
20260904120026 25 90 0.0 0.0 0.00 0.15 0.03 97 1013.9
20260904115509 25 90 0.0 0.0 0.00 0.15 0.03 97 1014.0
20260904115013 25 90 0.0 0.0 0.00 0.15 0.03 97 1013.9
20260904114526 25 90 0.0 0.0 0.00 0.15 0.03 97 1013.9
20260904114016 25 90 0.0 0.0 0.00 0.15 0.03 97 1013.9
20260904113514 25 90 0.0 0.0 0.00 0.15 0.03 97 1013.9
20260904113025 25 91 0.0 0.0 0.00 0.15 0.03 97 1013.8
20260904112516 25 91 0.0 0.0 0.03 0.15 0.03 97 1013.8
20260904112011 25 90 0.0 0.0 0.03 0.15 0.03 97 1013.8
20260904111515 25 91 0.0 0.0 0.03 0.15 0.03 97 1013.7
20260904111013 25 91 0.0 0.0 0.03 0.15 0.03 97 1013.7
20260904110513 25 90 0.0 0.0 0.03 0.15 0.03 97 1013.5
20260904110015 25 90 0.0 0.0 0.03 0.15 0.03 97 1013.6
20260904105505 25 91 0.0 0.0 0.03 0.15 0.03 97 1013.5
20260904105009 25 91 0.0 0.0 0.03 0.15 0.03 97 1013.5
20260904104514 25 91 0.0 0.0 0.03 0.15 0.03 97 1013.5
20260904104004 25 91 0.0 0.0 0.03 0.15 0.03 97 1013.4
20260904103511 25 90 0.0 0.0 0.03 0.15 0.03 97 1013.5
20260904103008 25 90 0.0 0.0 0.03 0.15 0.03 97 1013.4
20260904102512 25 91 0.0 0.0 0.00 0.13 0.00 97 1013.4
20260904102008 25 90 0.0 0.0 0.00 0.13 0.00 97 1013.5
20260904101505 25 91 0.0 0.0 0.00 0.13 0.00 97 1013.4
20260904101010 25 90 0.0 0.0 0.00 0.13 0.00 97 1013.4
20260904100510 25 91 0.0 0.0 0.00 0.13 0.00 97 1013.4
20260904100005 25 90 0.0 0.0 0.00 0.13 0.00 97 1013.5
20260904095512 25 90 0.0 0.0 0.00 0.13 0.00 97 1013.5
20260904095004 25 91 0.0 0.0 0.00 0.13 0.00 97 1013.4
20260904094528 25 90 0.0 0.0 0.00 0.13 0.00 97 1013.3
20260904094008 25 91 0.0 0.0 0.00 0.13 0.00 97 1013.3
20260904093504 25 90 0.0 0.0 0.00 0.13 0.00 97 1013.3
20260904093025 25 91 0.0 0.0 0.00 0.13 0.00 97 1013.2
20260904092503 25 91 0.0 0.0 0.00 0.13 0.00 97 1013.2
20260904092003 25 91 0.0 0.0 0.00 0.13 0.00 97 1013.1
20260904091522 25 90 0.0 0.0 0.00 0.13 0.00 97 1013.1
20260904091006 25 91 0.0 0.0 0.00 0.13 0.00 97 1013.1
20260904090512 25 91 0.0 0.0 0.00 0.13 0.00 96 1013.0
20260904090014 25 91 0.0 0.0 0.00 0.13 0.00 97 1013.0
20260904085504 25 91 0.0 0.0 0.00 0.13 0.00 97 1013.0
20260904085010 25 91 0.0 0.0 0.00 0.13 0.00 97 1013.0
20260904084512 25 91 0.0 0.0 0.00 0.13 0.00 97 1013.1
20260904084015 25 91 0.0 0.0 0.00 0.13 0.00 97 1013.1
20260904083510 25 91 0.0 0.0 0.00 0.13 0.00 96 1013.0
20260904083010 25 91 0.0 0.0 0.00 0.13 0.00 96 1012.9
20260904082511 25 91 0.0 0.0 0.00 0.13 0.00 97 1013.0
20260904082008 25 90 0.0 0.0 0.00 0.13 0.00 97 1013.1
20260904081507 25 90 0.0 0.0 0.00 0.13 0.00 97 1013.2
20260904081012 25 90 0.0 0.0 0.00 0.13 0.00 97 1013.2
20260904080504 25 90 0.0 0.0 0.00 0.13 0.00 97 1013.1
20260904080029 25 90 0.0 0.0 0.00 0.13 0.00 96 1013.1
20260904075510 25 91 0.0 0.0 0.00 0.13 0.00 96 1013.2
20260904075006 25 90 0.0 0.0 0.00 0.13 0.00 96 1013.3
20260904074544 25 90 0.0 0.0 0.00 0.13 0.00 96 1013.3
20260904074011 25 91 0.0 0.0 0.00 0.13 0.00 96 1013.4
20260904073502 25 90 0.0 0.0 0.00 0.13 0.00 96 1013.5
20260904073033 25 90 0.0 0.0 0.00 0.13 0.00 96 1013.5
20260904072505 25 90 0.0 0.0 0.00 0.13 0.00 96 1013.6
20260904072014 25 90 0.0 0.0 0.00 0.13 0.00 96 1013.6
20260904071520 25 91 0.0 0.0 0.00 0.13 0.00 96 1013.6
20260904071007 25 91 0.0 0.0 0.00 0.13 0.00 96 1013.6
20260904070514 25 90 0.0 0.0 0.00 0.13 0.00 96 1013.7
20260904070017 25 91 0.0 0.0 0.00 0.13 0.00 96 1013.7
20260904065516 25 90 0.0 0.0 0.00 0.13 0.00 96 1013.7
20260904065015 25 91 0.0 0.0 0.00 0.13 0.00 96 1013.6
20260904064517 25 91 0.0 0.0 0.00 0.13 0.00 96 1013.7
20260904064015 25 91 0.0 0.0 0.00 0.13 0.00 96 1013.7
20260904063513 25 91 0.0 0.0 0.00 0.13 0.00 96 1013.6
20260904063010 25 91 0.0 0.0 0.00 0.13 0.00 96 1013.6
20260904062517 25 91 0.0 0.0 0.00 0.13 0.00 96 1013.5
20260904062010 25 90 0.0 0.0 0.00 0.13 0.00 96 1013.6
20260904061537 25 91 0.0 0.0 0.00 0.13 0.00 96 1013.7
20260904061014 25 90 0.0 0.0 0.00 0.13 0.00 96 1013.7
20260904060506 25 91 0.0 0.0 0.00 0.13 0.00 96 1013.7
20260904060029 25 91 0.0 0.0 0.00 0.15 0.00 96 1013.7
20260904055509 25 91 0.0 0.0 0.00 0.15 0.00 96 1013.9
20260904055005 25 91 0.0 0.0 0.00 0.15 0.00 96 1013.9
20260904054533 25 90 0.0 0.0 0.00 0.15 0.00 96 1013.9
20260904054009 25 91 0.0 0.0 0.00 0.15 0.00 96 1013.8
20260904053517 25 90 0.0 0.0 0.00 0.15 0.00 96 1013.7
20260904053028 25 90 0.0 0.0 0.00 0.15 0.00 96 1013.7
20260904052507 25 90 0.0 0.0 0.00 0.15 0.00 96 1013.7
20260904052014 25 91 0.0 0.0 0.00 0.15 0.00 96 1013.7
20260904051522 25 90 0.0 0.0 0.00 0.18 0.00 96 1013.8
20260904051004 25 91 0.0 0.0 0.00 0.18 0.00 96 1013.7
20260904050512 25 90 0.0 0.0 0.00 0.23 0.00 96 1013.7
20260904050017 25 90 0.0 0.0 0.00 0.25 0.00 96 1013.6
20260904045514 25 91 0.0 0.0 0.00 0.28 0.25 96 1013.6
20260904045012 25 91 0.0 0.0 0.00 0.28 0.25 96 1013.7
20260904044513 25 91 0.0 0.0 0.00 0.30 0.25 96 1013.8
20260904044013 25 90 0.0 0.0 0.00 0.30 0.25 96 1013.7
20260904043512 25 90 0.0 0.0 0.00 0.30 0.25 96 1013.6
20260904043032 25 91 0.0 0.0 0.00 0.30 0.25 95 1013.7
20260904042515 25 91 0.0 0.0 0.00 0.30 0.25 95 1013.7
20260904042011 25 91 0.0 0.0 0.00 0.30 0.25 96 1013.7
20260904041535 25 90 0.0 0.0 0.00 0.30 0.25 96 1013.6
20260904041016 25 91 0.0 0.0 0.00 0.30 0.25 96 1013.7
20260904040508 25 90 0.0 0.0 0.00 0.30 0.25 95 1013.7
20260904040032 25 90 0.0 0.0 0.00 0.30 0.25 95 1013.7
20260904035515 25 90 0.0 0.0 0.00 0.33 0.25 95 1013.8
20260904035013 25 91 0.0 0.0 0.00 0.33 0.25 95 1013.9
20260904034531 25 91 0.0 0.0 0.00 0.33 0.25 95 1013.8
20260904034012 25 90 0.0 0.0 0.00 0.33 0.25 95 1013.7
20260904033517 25 91 0.0 0.0 0.00 0.33 0.25 95 1013.5
20260904033027 25 90 0.0 0.0 0.00 0.33 0.25 95 1013.5
20260904032509 25 91 0.0 0.0 0.00 0.33 0.25 95 1013.7
20260904032017 25 91 0.0 0.0 0.00 0.33 0.25 95 1013.6
20260904031526 25 90 0.0 0.0 0.00 0.33 0.25 95 1013.5
20260904031020 25 91 0.0 0.0 0.00 0.33 0.25 95 1013.5
20260904030513 25 91 0.0 0.0 0.00 0.33 0.25 95 1013.5
20260904030024 25 91 0.0 0.0 0.00 0.33 0.25 95 1013.5
20260904025515 25 91 0.0 0.0 0.00 0.33 0.25 95 1013.4
20260904025015 25 91 0.0 0.0 0.00 0.33 0.25 95 1013.3
20260904024516 25 90 0.0 0.0 0.00 0.33 0.25 95 1013.4
20260904024017 25 90 0.0 0.0 0.00 0.33 0.25 95 1013.3
20260904023512 25 91 0.0 0.0 0.00 0.33 0.25 95 1013.2
20260904023034 25 90 0.0 0.0 0.00 0.33 0.25 95 1013.2
20260904022516 25 91 0.0 0.0 0.00 0.33 0.25 94 1013.1
20260904022009 25 91 0.0 0.0 0.00 0.33 0.25 94 1013.1
20260904021537 25 90 0.0 0.0 0.00 0.33 0.25 94 1013.0
20260904021017 25 91 0.0 0.0 0.00 0.33 0.25 94 1013.0
20260904020516 25 91 0.0 0.0 0.00 0.33 0.25 94 1012.9
20260904020011 25 91 0.0 0.0 0.00 0.33 0.25 94 1012.8
20260904015512 25 90 0.0 0.0 0.00 0.33 0.25 94 1012.9
20260904015010 25 91 0.0 0.0 0.00 0.33 0.25 94 1012.8
20260904014516 25 91 0.0 0.0 0.00 0.33 0.25 94 1012.8
20260904014012 25 91 0.0 0.0 0.00 0.33 0.25 94 1012.5
20260904013505 25 91 0.0 0.0 0.00 0.33 0.25 94 1012.6
20260904013006 25 91 0.0 0.0 0.00 0.33 0.25 94 1012.7